START_TIME,STEP,MOV.,M35,t_acc.,PL05,t_acc.,PL06,t_acc.,PL07,t_acc.
1986-01-24 00:00:01.430 ,4,0,0.,4.8,2.,4.8,1.,4.8,0.,4.8
1986-01-24 00:00:06.230 ,4,0,0.,4.8,3.,4.8,1.,4.8,0.,4.8
1986-01-24 00:00:11.030 ,4,0,0.,4.8,0.,4.8,0.,4.8,0.,4.8
1986-01-24 00:00:15.830 ,4,0,0.,4.8,0.,4.8,0.,4.8,0.,4.8
1986-01-24 00:00:20.630 ,4,0,0.,4.8,0.,4.8,0.,4.8,0.,4.8
1986-01-24 00:00:25.430 ,4,0,0.,4.8,0.,4.8,0.,4.8,0.,4.8
1986-01-24 00:00:30.230 ,4,0,0.,4.8,2.,4.8,0.,4.8,0.,4.8
1986-01-24 00:00:35.030 ,4,0,0.,4.8,0.,4.8,0.,4.8,0.,4.8
1986-01-24 00:00:39.830 ,4,0,0.,4.8,0.,4.8,0.,4.8,0.,4.8
1986-01-24 00:00:44.630 ,4,0,0.,4.8,0.,4.8,0.,4.8,0.,4.8
1986-01-24 00:00:49.430 ,3,0,0.,4.8,1.,4.8,1.,4.8,0.,4.8
1986-01-24 00:00:54.230 ,3,0,0.,4.8,1.,4.8,0.,4.8,0.,4.8
1986-01-24 00:00:59.030 ,3,0,0.,4.8,1.,4.8,0.,4.8,0.,4.8
1986-01-24 00:01:03.830 ,3,0,0.,4.8,0.,4.8,0.,4.8,0.,4.8
1986-01-24 00:01:08.630 ,3,0,0.,4.8,1.,4.8,0.,4.8,0.,4.8
1986-01-24 00:01:13.430 ,3,0,0.,4.8,0.,4.8,1.,4.8,0.,4.8
1986-01-24 00:01:18.230 ,3,0,0.,4.8,1.,4.8,1.,4.8,0.,4.8
1986-01-24 00:01:23.030 ,3,0,0.,4.8,0.,4.8,0.,4.8,0.,4.8
1986-01-24 00:01:27.830 ,3,0,0.,4.8,2.,4.8,0.,4.8,0.,4.8
1986-01-24 00:01:32.630 ,3,0,0.,4.8,1.,4.8,0.,4.8,0.,4.8
1986-01-24 00:01:37.430 ,2,0,0.,4.8,0.,4.8,0.,4.8,0.,4.8
1986-01-24 00:01:42.230 ,2,0,0.,4.8,0.,4.8,0.,4.8,0.,4.8
1986-01-24 00:01:47.030 ,2,0,0.,4.8,0.,4.8,1.,4.8,1.,4.8
1986-01-24 00:01:51.830 ,2,0,0.,4.8,0.,4.8,0.,4.8,0.,4.8
1986-01-24 00:01:56.630 ,2,0,0.,4.8,1.,4.8,0.,4.8,0.,4.8
1986-01-24 00:02:01.430 ,2,0,0.,4.8,2.,4.8,0.,4.8,0.,4.8
1986-01-24 00:02:06.230 ,2,0,0.,4.8,1.,4.8,0.,4.8,0.,4.8
1986-01-24 00:02:11.030 ,2,0,0.,4.8,0.,4.8,0.,4.8,0.,4.8
1986-01-24 00:02:15.830 ,2,0,0.,4.8,2.,4.8,0.,4.8,0.,4.8
1986-01-24 00:02:20.630 ,2,0,0.,4.8,0.,4.8,0.,4.8,0.,4.8
1986-01-24 00:02:25.430 ,1,0,0.,4.8,0.,4.8,0.,4.8,0.,4.8
1986-01-24 00:02:30.230 ,1,0,0.,4.8,0.,4.8,0.,4.8,0.,4.8
1986-01-24 00:02:35.030 ,1,0,0.,4.8,0.,4.8,0.,4.8,0.,4.8
1986-01-24 00:02:39.830 ,1,0,0.,4.8,1.,4.8,0.,4.8,0.,4.8
1986-01-24 00:02:44.630 ,1,0,0.,4.8,1.,4.8,0.,4.8,0.,4.8
1986-01-24 00:02:49.430 ,1,0,0.,4.8,0.,4.8,0.,4.8,0.,4.8
1986-01-24 00:02:54.230 ,1,0,0.,4.8,2.,4.8,0.,4.8,0.,4.8
1986-01-24 00:02:59.030 ,1,0,0.,4.8,1.,4.8,0.,4.8,0.,4.8
1986-01-24 00:03:03.830 ,1,0,0.,4.8,0.,4.8,0.,4.8,0.,4.8
1986-01-24 00:03:08.630 ,1,0,0.,4.8,1.,4.8,0.,4.8,0.,4.8
1986-01-24 00:03:13.430 ,0,0,0.,4.8,1.,4.8,0.,4.8,0.,4.8
1986-01-24 00:03:18.230 ,0,0,0.,4.8,0.,4.8,0.,4.8,0.,4.8
1986-01-24 00:03:23.030 ,0,0,0.,4.8,1.,4.8,0.,4.8,0.,4.8
1986-01-24 00:03:27.830 ,0,0,0.,4.8,3.,4.8,0.,4.8,0.,4.8
1986-01-24 00:03:32.630 ,0,0,0.,4.8,2.,4.8,0.,4.8,0.,4.8
1986-01-24 00:03:37.430 ,0,0,0.,4.8,1.,4.8,0.,4.8,0.,4.8
1986-01-24 00:03:42.230 ,0,0,0.,4.8,1.,4.8,0.,4.8,0.,4.8
1986-01-24 00:03:47.030 ,0,0,0.,4.8,0.,4.8,0.,4.8,0.,4.8
1986-01-24 00:03:51.830 ,0,0,0.,4.8,2.,4.8,1.,4.8,0.,4.8
1986-01-24 00:03:56.630 ,0,0,0.,4.8,1.,4.8,1.,4.8,0.,4.8
1986-01-24 00:04:01.430 ,0,0,0.,4.8,3.,4.8,0.,4.8,0.,4.8
1986-01-24 00:04:06.230 ,0,0,0.,4.8,1.,4.8,0.,4.8,0.,4.8
1986-01-24 00:04:11.030 ,0,0,0.,4.8,1.,4.8,1.,4.8,0.,4.8
1986-01-24 00:04:15.830 ,0,0,0.,4.8,1.,4.8,0.,4.8,0.,4.8
1986-01-24 00:04:20.630 ,0,0,0.,4.8,0.,4.8,0.,4.8,0.,4.8
1986-01-24 00:04:25.430 ,0,0,0.,4.8,2.,4.8,0.,4.8,0.,4.8
1986-01-24 00:04:30.230 ,0,0,0.,4.8,2.,4.8,0.,4.8,0.,4.8
1986-01-24 00:04:35.030 ,0,0,0.,4.8,0.,4.8,0.,4.8,0.,4.8
1986-01-24 00:04:39.830 ,0,0,0.,4.8,1.,4.8,0.,4.8,0.,4.8
1986-01-24 00:04:44.630 ,0,0,0.,4.8,0.,4.8,0.,4.8,0.,4.8
1986-01-24 00:04:49.430 ,1,0,0.,4.8,0.,4.8,0.,4.8,0.,4.8
1986-01-24 00:04:54.230 ,1,0,0.,4.8,0.,4.8,0.,4.8,0.,4.8
1986-01-24 00:04:59.030 ,1,0,0.,4.8,0.,4.8,1.,4.8,0.,4.8
1986-01-24 00:05:03.830 ,1,0,0.,4.8,0.,4.8,0.,4.8,0.,4.8
1986-01-24 00:05:08.630 ,1,0,0.,4.8,0.,4.8,0.,4.8,0.,4.8
1986-01-24 00:05:13.430 ,1,0,0.,4.8,3.,4.8,0.,4.8,0.,4.8
1986-01-24 00:05:18.230 ,1,0,0.,4.8,1.,4.8,0.,4.8,0.,4.8
1986-01-24 00:05:23.030 ,1,0,0.,4.8,2.,4.8,0.,4.8,0.,4.8
1986-01-24 00:05:27.830 ,1,0,0.,4.8,1.,4.8,0.,4.8,0.,4.8
1986-01-24 00:05:32.630 ,1,0,0.,4.8,2.,4.8,0.,4.8,0.,4.8
1986-01-24 00:05:37.430 ,2,0,0.,4.8,0.,4.8,0.,4.8,0.,4.8
1986-01-24 00:05:42.230 ,2,0,0.,4.8,0.,4.8,1.,4.8,0.,4.8
1986-01-24 00:05:47.030 ,2,0,0.,4.8,2.,4.8,0.,4.8,0.,4.8
1986-01-24 00:05:51.830 ,2,0,0.,4.8,0.,4.8,0.,4.8,0.,4.8
1986-01-24 00:05:56.630 ,2,0,0.,4.8,1.,4.8,0.,4.8,0.,4.8
1986-01-24 00:06:01.430 ,2,0,0.,4.8,1.,4.8,0.,4.8,0.,4.8
1986-01-24 00:06:06.230 ,2,0,0.,4.8,0.,4.8,0.,4.8,0.,4.8
1986-01-24 00:06:11.030 ,2,0,0.,4.8,1.,4.8,0.,4.8,0.,4.8
1986-01-24 00:06:15.830 ,2,0,0.,4.8,1.,4.8,0.,4.8,0.,4.8
1986-01-24 00:06:20.630 ,2,0,0.,4.8,1.,4.8,0.,4.8,0.,4.8
1986-01-24 00:06:25.430 ,3,0,0.,4.8,0.,4.8,0.,4.8,0.,4.8
1986-01-24 00:06:30.230 ,3,0,0.,4.8,4.,4.8,0.,4.8,0.,4.8
1986-01-24 00:06:35.030 ,3,0,0.,4.8,1.,4.8,0.,4.8,1.,4.8
1986-01-24 00:06:39.830 ,3,0,0.,4.8,2.,4.8,1.,4.8,0.,4.8
1986-01-24 00:06:44.630 ,3,0,0.,4.8,1.,4.8,0.,4.8,0.,4.8
1986-01-24 00:06:49.430 ,3,0,0.,4.8,1.,4.8,0.,4.8,0.,4.8
1986-01-24 00:06:54.230 ,3,0,0.,4.8,0.,4.8,0.,4.8,0.,4.8
1986-01-24 00:06:59.030 ,3,0,0.,4.8,0.,4.8,0.,4.8,0.,4.8
1986-01-24 00:07:03.830 ,3,0,0.,4.8,1.,4.8,1.,4.8,0.,4.8
1986-01-24 00:07:08.630 ,3,0,0.,4.8,1.,4.8,0.,4.8,0.,4.8
1986-01-24 00:07:13.430 ,4,0,0.,4.8,1.,4.8,0.,4.8,0.,4.8
1986-01-24 00:07:18.230 ,4,0,0.,4.8,0.,4.8,0.,4.8,0.,4.8
1986-01-24 00:07:23.030 ,4,0,0.,4.8,2.,4.8,0.,4.8,0.,4.8
1986-01-24 00:07:27.830 ,4,0,0.,4.8,0.,4.8,0.,4.8,0.,4.8
1986-01-24 00:07:32.630 ,4,0,0.,4.8,0.,4.8,2.,4.8,1.,4.8
1986-01-24 00:07:37.430 ,4,0,0.,4.8,0.,4.8,0.,4.8,0.,4.8
1986-01-24 00:07:42.230 ,4,0,0.,4.8,0.,4.8,0.,4.8,0.,4.8
1986-01-24 00:07:47.030 ,4,0,0.,4.8,2.,4.8,0.,4.8,0.,4.8
1986-01-24 00:07:51.830 ,4,0,0.,4.8,0.,4.8,0.,4.8,0.,4.8
1986-01-24 00:07:56.630 ,4,0,0.,4.8,3.,4.8,0.,4.8,0.,4.8
1986-01-24 00:08:01.430 ,5,0,0.,4.8,0.,4.8,0.,4.8,0.,4.8
1986-01-24 00:08:06.230 ,5,0,0.,4.8,1.,4.8,0.,4.8,0.,4.8
1986-01-24 00:08:11.030 ,5,0,0.,4.8,0.,4.8,0.,4.8,0.,4.8
1986-01-24 00:08:15.830 ,5,0,0.,4.8,3.,4.8,0.,4.8,0.,4.8
1986-01-24 00:08:20.630 ,5,0,0.,4.8,1.,4.8,0.,4.8,0.,4.8
1986-01-24 00:08:25.430 ,5,0,0.,4.8,2.,4.8,1.,4.8,0.,4.8
1986-01-24 00:08:30.230 ,5,0,0.,4.8,2.,4.8,1.,4.8,0.,4.8
1986-01-24 00:08:35.030 ,5,0,0.,4.8,0.,4.8,0.,4.8,0.,4.8
1986-01-24 00:08:39.830 ,5,0,0.,4.8,1.,4.8,0.,4.8,0.,4.8
1986-01-24 00:08:44.630 ,5,0,0.,4.8,0.,4.8,0.,4.8,0.,4.8
1986-01-24 00:08:49.430 ,6,0,0.,4.8,2.,4.8,0.,4.8,0.,4.8
1986-01-24 00:08:54.230 ,6,0,0.,4.8,0.,4.8,0.,4.8,0.,4.8
1986-01-24 00:08:59.030 ,6,0,0.,4.8,0.,4.8,0.,4.8,0.,4.8
1986-01-24 00:09:03.830 ,6,0,0.,4.8,2.,4.8,0.,4.8,0.,4.8
1986-01-24 00:09:08.630 ,6,0,0.,4.8,1.,4.8,0.,4.8,0.,4.8
1986-01-24 00:09:13.430 ,6,0,0.,4.8,1.,4.8,0.,4.8,0.,4.8
1986-01-24 00:09:18.230 ,6,0,0.,4.8,0.,4.8,0.,4.8,0.,4.8
1986-01-24 00:09:23.030 ,6,0,0.,4.8,1.,4.8,0.,4.8,0.,4.8
1986-01-24 00:09:27.830 ,6,0,0.,4.8,0.,4.8,0.,4.8,0.,4.8
1986-01-24 00:09:32.630 ,6,0,0.,4.8,0.,4.8,0.,4.8,0.,4.8
1986-01-24 00:09:37.430 ,7,0,0.,4.8,0.,4.8,0.,4.8,0.,4.8
1986-01-24 00:09:42.230 ,7,0,0.,4.8,1.,4.8,0.,4.8,1.,4.8
1986-01-24 00:09:47.030 ,7,0,0.,4.8,1.,4.8,1.,4.8,0.,4.8
1986-01-24 00:09:51.830 ,7,0,0.,4.8,1.,4.8,0.,4.8,0.,4.8
1986-01-24 00:09:56.630 ,7,0,0.,4.8,0.,4.8,0.,4.8,0.,4.8
1986-01-24 00:10:01.430 ,7,0,0.,4.8,0.,4.8,1.,4.8,0.,4.8
1986-01-24 00:10:06.230 ,7,0,0.,4.8,0.,4.8,0.,4.8,0.,4.8
1986-01-24 00:10:11.030 ,7,0,0.,4.8,2.,4.8,0.,4.8,0.,4.8
1986-01-24 00:10:15.830 ,7,0,0.,4.8,0.,4.8,0.,4.8,0.,4.8
1986-01-24 00:10:20.630 ,7,0,0.,4.8,0.,4.8,0.,4.8,0.,4.8
1986-01-24 00:10:25.430 ,7,0,0.,4.8,0.,4.8,0.,4.8,0.,4.8
1986-01-24 00:10:30.230 ,7,0,0.,4.8,0.,4.8,0.,4.8,0.,4.8
1986-01-24 00:10:35.030 ,7,0,0.,4.8,0.,4.8,0.,4.8,0.,4.8
1986-01-24 00:10:39.830 ,7,0,0.,4.8,0.,4.8,0.,4.8,0.,4.8
1986-01-24 00:10:44.630 ,7,0,0.,4.8,2.,4.8,0.,4.8,1.,4.8
1986-01-24 00:10:49.430 ,7,0,0.,4.8,1.,4.8,0.,4.8,0.,4.8
1986-01-24 00:10:54.230 ,7,0,0.,4.8,0.,4.8,0.,4.8,0.,4.8
1986-01-24 00:10:59.030 ,7,0,0.,4.8,0.,4.8,0.,4.8,0.,4.8
1986-01-24 00:11:03.830 ,7,0,0.,4.8,1.,4.8,0.,4.8,0.,4.8
1986-01-24 00:11:08.630 ,7,0,0.,4.8,1.,4.8,0.,4.8,0.,4.8
1986-01-24 00:11:13.430 ,6,0,0.,4.8,0.,4.8,0.,4.8,0.,4.8
1986-01-24 00:11:18.230 ,6,0,0.,4.8,0.,4.8,0.,4.8,0.,4.8
1986-01-24 00:11:23.030 ,6,0,0.,4.8,2.,4.8,0.,4.8,0.,4.8
1986-01-24 00:11:27.830 ,6,0,0.,4.8,2.,4.8,0.,4.8,0.,4.8
1986-01-24 00:11:32.630 ,6,0,0.,4.8,1.,4.8,0.,4.8,0.,4.8
1986-01-24 00:11:37.430 ,6,0,0.,4.8,1.,4.8,0.,4.8,0.,4.8
1986-01-24 00:11:42.230 ,6,0,0.,4.8,0.,4.8,1.,4.8,0.,4.8
1986-01-24 00:11:47.030 ,6,0,0.,4.8,1.,4.8,0.,4.8,0.,4.8
1986-01-24 00:11:51.830 ,6,0,0.,4.8,0.,4.8,0.,4.8,0.,4.8
1986-01-24 00:11:56.630 ,6,0,0.,4.8,2.,4.8,0.,4.8,0.,4.8
1986-01-24 00:12:01.430 ,5,0,0.,4.8,1.,4.8,0.,4.8,0.,4.8
1986-01-24 00:12:06.230 ,5,0,0.,4.8,1.,4.8,0.,4.8,0.,4.8
1986-01-24 00:12:11.030 ,5,0,0.,4.8,0.,4.8,0.,4.8,0.,4.8
1986-01-24 00:12:15.830 ,5,0,0.,4.8,2.,4.8,1.,4.8,0.,4.8
1986-01-24 00:12:20.630 ,5,0,0.,4.8,0.,4.8,0.,4.8,0.,4.8
1986-01-24 00:12:25.430 ,5,0,0.,4.8,1.,4.8,0.,4.8,0.,4.8
1986-01-24 00:12:30.230 ,5,0,0.,4.8,0.,4.8,0.,4.8,0.,4.8
1986-01-24 00:12:35.030 ,5,0,0.,4.8,1.,4.8,0.,4.8,0.,4.8
1986-01-24 00:12:39.830 ,5,0,0.,4.8,0.,4.8,0.,4.8,1.,4.8
1986-01-24 00:12:44.630 ,5,0,0.,4.8,0.,4.8,0.,4.8,0.,4.8
1986-01-24 00:12:49.430 ,4,0,0.,4.8,0.,4.8,0.,4.8,0.,4.8
1986-01-24 00:12:54.230 ,4,0,0.,4.8,0.,4.8,0.,4.8,0.,4.8
1986-01-24 00:12:59.030 ,4,0,0.,4.8,0.,4.8,0.,4.8,0.,4.8
1986-01-24 00:13:03.830 ,4,0,0.,4.8,2.,4.8,0.,4.8,0.,4.8
1986-01-24 00:13:08.630 ,4,0,0.,4.8,0.,4.8,0.,4.8,0.,4.8
1986-01-24 00:13:13.430 ,4,0,0.,4.8,0.,4.8,0.,4.8,0.,4.8
1986-01-24 00:13:18.230 ,4,0,0.,4.8,1.,4.8,0.,4.8,0.,4.8
1986-01-24 00:13:23.030 ,4,0,0.,4.8,0.,4.8,0.,4.8,0.,4.8
1986-01-24 00:13:27.830 ,4,0,0.,4.8,0.,4.8,0.,4.8,0.,4.8
1986-01-24 00:13:32.630 ,4,0,0.,4.8,0.,4.8,0.,4.8,0.,4.8
1986-01-24 00:13:37.430 ,3,0,0.,4.8,1.,4.8,0.,4.8,0.,4.8
1986-01-24 00:13:42.230 ,3,0,0.,4.8,1.,4.8,0.,4.8,0.,4.8
1986-01-24 00:13:47.030 ,3,0,0.,4.8,0.,4.8,0.,4.8,0.,4.8
1986-01-24 00:13:51.830 ,3,0,0.,4.8,0.,4.8,0.,4.8,0.,4.8
1986-01-24 00:13:56.630 ,3,0,0.,4.8,0.,4.8,0.,4.8,0.,4.8
1986-01-24 00:14:01.430 ,3,0,0.,4.8,1.,4.8,0.,4.8,0.,4.8
1986-01-24 00:14:06.230 ,3,0,0.,4.8,0.,4.8,0.,4.8,0.,4.8
1986-01-24 00:14:11.030 ,3,0,0.,4.8,0.,4.8,1.,4.8,0.,4.8
1986-01-24 00:14:15.830 ,3,0,0.,4.8,1.,4.8,1.,4.8,0.,4.8
1986-01-24 00:14:20.630 ,3,0,0.,4.8,1.,4.8,0.,4.8,0.,4.8
1986-01-24 00:14:25.430 ,2,0,0.,4.8,1.,4.8,0.,4.8,0.,4.8
1986-01-24 00:14:30.230 ,2,0,0.,4.8,0.,4.8,0.,4.8,0.,4.8
1986-01-24 00:14:35.030 ,2,0,0.,4.8,0.,4.8,0.,4.8,0.,4.8
1986-01-24 00:14:39.830 ,2,0,0.,4.8,1.,4.8,0.,4.8,0.,4.8
1986-01-24 00:14:44.630 ,2,0,0.,4.8,2.,4.8,0.,4.8,0.,4.8
1986-01-24 00:14:49.430 ,2,0,0.,4.8,1.,4.8,0.,4.8,0.,4.8
1986-01-24 00:14:54.230 ,2,0,0.,4.8,0.,4.8,0.,4.8,0.,4.8
1986-01-24 00:14:59.030 ,2,0,0.,4.8,1.,4.8,0.,4.8,0.,4.8
1986-01-24 00:15:03.830 ,2,0,0.,4.8,0.,4.8,0.,4.8,0.,4.8
1986-01-24 00:15:08.630 ,2,0,0.,4.8,0.,4.8,0.,4.8,0.,4.8
1986-01-24 00:15:13.430 ,1,0,0.,4.8,0.,4.8,0.,4.8,0.,4.8
1986-01-24 00:15:18.230 ,1,0,0.,4.8,0.,4.8,0.,4.8,0.,4.8
1986-01-24 00:15:23.030 ,1,0,0.,4.8,1.,4.8,0.,4.8,0.,4.8
1986-01-24 00:15:27.830 ,1,0,0.,4.8,1.,4.8,0.,4.8,0.,4.8
1986-01-24 00:15:32.630 ,1,0,0.,4.8,1.,4.8,0.,4.8,0.,4.8
1986-01-24 00:15:37.430 ,1,0,0.,4.8,0.,4.8,0.,4.8,0.,4.8
1986-01-24 00:15:42.230 ,1,0,0.,4.8,0.,4.8,0.,4.8,0.,4.8
1986-01-24 00:15:47.030 ,1,0,0.,4.8,0.,4.8,0.,4.8,0.,4.8
1986-01-24 00:15:51.830 ,1,0,0.,4.8,0.,4.8,0.,4.8,0.,4.8
1986-01-24 00:15:56.630 ,1,0,0.,4.8,1.,4.8,0.,4.8,0.,4.8
1986-01-24 00:16:01.430 ,0,0,0.,4.8,1.,4.8,1.,4.8,0.,4.8
1986-01-24 00:16:06.230 ,0,0,0.,4.8,0.,4.8,0.,4.8,0.,4.8
1986-01-24 00:16:11.030 ,0,0,0.,4.8,3.,4.8,0.,4.8,0.,4.8
1986-01-24 00:16:15.830 ,0,0,0.,4.8,2.,4.8,0.,4.8,0.,4.8
1986-01-24 00:16:20.630 ,0,0,0.,4.8,0.,4.8,0.,4.8,0.,4.8
1986-01-24 00:16:25.430 ,0,0,0.,4.8,0.,4.8,1.,4.8,0.,4.8
1986-01-24 00:16:30.230 ,0,0,0.,4.8,0.,4.8,0.,4.8,0.,4.8
1986-01-24 00:16:35.030 ,0,0,0.,4.8,0.,4.8,0.,4.8,0.,4.8
1986-01-24 00:16:39.830 ,0,0,0.,4.8,0.,4.8,0.,4.8,0.,4.8
1986-01-24 00:16:44.630 ,0,0,0.,4.8,1.,4.8,0.,4.8,1.,4.8
1986-01-24 00:16:49.430 ,0,0,0.,4.8,1.,4.8,0.,4.8,0.,4.8
1986-01-24 00:16:54.230 ,0,0,0.,4.8,1.,4.8,0.,4.8,0.,4.8
1986-01-24 00:16:59.030 ,0,0,0.,4.8,1.,4.8,0.,4.8,0.,4.8
1986-01-24 00:17:03.830 ,0,0,0.,4.8,0.,4.8,0.,4.8,0.,4.8
1986-01-24 00:17:08.630 ,0,0,0.,4.8,1.,4.8,0.,4.8,0.,4.8
1986-01-24 00:17:13.430 ,0,0,0.,4.8,0.,4.8,0.,4.8,0.,4.8
1986-01-24 00:17:18.230 ,0,0,0.,4.8,0.,4.8,2.,4.8,0.,4.8
1986-01-24 00:17:23.030 ,0,0,0.,4.8,1.,4.8,0.,4.8,0.,4.8
1986-01-24 00:17:27.830 ,0,0,0.,4.8,0.,4.8,2.,4.8,0.,4.8
1986-01-24 00:17:32.630 ,0,0,0.,4.8,3.,4.8,0.,4.8,0.,4.8
1986-01-24 00:17:37.430 ,1,0,0.,4.8,2.,4.8,0.,4.8,1.,4.8
1986-01-24 00:17:42.230 ,1,0,0.,4.8,0.,4.8,0.,4.8,0.,4.8
1986-01-24 00:17:47.030 ,1,0,0.,4.8,0.,4.8,0.,4.8,0.,4.8
1986-01-24 00:17:51.830 ,1,0,0.,4.8,0.,4.8,0.,4.8,0.,4.8
1986-01-24 00:17:56.630 ,1,0,0.,4.8,0.,4.8,0.,4.8,0.,4.8
1986-01-24 00:18:01.430 ,1,0,0.,4.8,0.,4.8,0.,4.8,0.,4.8
1986-01-24 00:18:06.230 ,1,0,0.,4.8,2.,4.8,0.,4.8,0.,4.8
1986-01-24 00:18:11.030 ,1,0,0.,4.8,0.,4.8,0.,4.8,0.,4.8
1986-01-24 00:18:15.830 ,1,0,0.,4.8,0.,4.8,0.,4.8,0.,4.8
1986-01-24 00:18:20.630 ,1,0,0.,4.8,1.,4.8,0.,4.8,0.,4.8
1986-01-24 00:18:25.430 ,2,0,0.,4.8,2.,4.8,0.,4.8,0.,4.8
1986-01-24 00:18:30.230 ,2,0,0.,4.8,0.,4.8,0.,4.8,0.,4.8
1986-01-24 00:18:35.030 ,2,0,0.,4.8,0.,4.8,1.,4.8,0.,4.8
1986-01-24 00:18:39.830 ,2,0,0.,4.8,1.,4.8,0.,4.8,0.,4.8
1986-01-24 00:18:44.630 ,2,0,0.,4.8,2.,4.8,0.,4.8,0.,4.8
1986-01-24 00:18:49.430 ,2,0,0.,4.8,0.,4.8,0.,4.8,0.,4.8
1986-01-24 00:18:54.230 ,2,0,0.,4.8,2.,4.8,0.,4.8,0.,4.8
1986-01-24 00:18:59.030 ,2,0,0.,4.8,2.,4.8,0.,4.8,0.,4.8
1986-01-24 00:19:03.830 ,2,0,0.,4.8,1.,4.8,0.,4.8,0.,4.8
1986-01-24 00:19:08.630 ,2,0,0.,4.8,0.,4.8,1.,4.8,0.,4.8
1986-01-24 00:19:13.430 ,3,0,0.,4.8,1.,4.8,0.,4.8,0.,4.8
1986-01-24 00:19:18.230 ,3,0,0.,4.8,1.,4.8,0.,4.8,0.,4.8
1986-01-24 00:19:23.030 ,3,0,0.,4.8,2.,4.8,0.,4.8,1.,4.8
1986-01-24 00:19:27.830 ,3,0,0.,4.8,1.,4.8,0.,4.8,0.,4.8
1986-01-24 00:19:32.630 ,3,0,0.,4.8,0.,4.8,0.,4.8,0.,4.8
1986-01-24 00:19:37.430 ,3,0,0.,4.8,1.,4.8,0.,4.8,0.,4.8
1986-01-24 00:19:42.230 ,3,0,0.,4.8,1.,4.8,0.,4.8,0.,4.8
1986-01-24 00:19:47.030 ,3,0,0.,4.8,1.,4.8,2.,4.8,0.,4.8
1986-01-24 00:19:51.830 ,3,0,0.,4.8,0.,4.8,0.,4.8,0.,4.8
1986-01-24 00:19:56.630 ,3,0,0.,4.8,0.,4.8,0.,4.8,0.,4.8
1986-01-24 00:20:01.430 ,4,0,0.,4.8,0.,4.8,0.,4.8,1.,4.8
1986-01-24 00:20:06.230 ,4,0,0.,4.8,1.,4.8,0.,4.8,0.,4.8
1986-01-24 00:20:11.030 ,4,0,0.,4.8,0.,4.8,0.,4.8,0.,4.8
1986-01-24 00:20:15.830 ,4,0,0.,4.8,1.,4.8,1.,4.8,0.,4.8
1986-01-24 00:20:20.630 ,4,0,0.,4.8,0.,4.8,0.,4.8,0.,4.8
1986-01-24 00:20:25.430 ,4,0,0.,4.8,1.,4.8,1.,4.8,0.,4.8
1986-01-24 00:20:30.230 ,4,0,0.,4.8,1.,4.8,0.,4.8,0.,4.8
1986-01-24 00:20:35.030 ,4,0,0.,4.8,2.,4.8,0.,4.8,0.,4.8
1986-01-24 00:20:39.830 ,4,0,0.,4.8,1.,4.8,0.,4.8,0.,4.8
1986-01-24 00:20:44.630 ,4,0,0.,4.8,0.,4.8,0.,4.8,0.,4.8
1986-01-24 00:20:49.430 ,5,0,0.,4.8,0.,4.8,0.,4.8,0.,4.8
1986-01-24 00:20:54.230 ,5,0,0.,4.8,0.,4.8,0.,4.8,0.,4.8
1986-01-24 00:20:59.030 ,5,0,0.,4.8,0.,4.8,0.,4.8,0.,4.8
1986-01-24 00:21:03.830 ,5,0,0.,4.8,1.,4.8,0.,4.8,0.,4.8
1986-01-24 00:21:08.630 ,5,0,0.,4.8,0.,4.8,0.,4.8,0.,4.8
1986-01-24 00:21:13.430 ,5,0,0.,4.8,0.,4.8,0.,4.8,0.,4.8
1986-01-24 00:21:18.230 ,5,0,0.,4.8,2.,4.8,0.,4.8,0.,4.8
1986-01-24 00:21:23.030 ,5,0,0.,4.8,1.,4.8,0.,4.8,0.,4.8
1986-01-24 00:21:27.830 ,5,0,0.,4.8,1.,4.8,0.,4.8,0.,4.8
1986-01-24 00:21:32.630 ,5,0,0.,4.8,0.,4.8,0.,4.8,0.,4.8
1986-01-24 00:21:37.430 ,6,0,0.,4.8,0.,4.8,0.,4.8,0.,4.8
1986-01-24 00:21:42.230 ,6,0,0.,4.8,0.,4.8,0.,4.8,0.,4.8
1986-01-24 00:21:47.030 ,6,0,0.,4.8,1.,4.8,0.,4.8,0.,4.8
1986-01-24 00:21:51.830 ,6,0,0.,4.8,0.,4.8,1.,4.8,0.,4.8
1986-01-24 00:21:56.630 ,6,0,0.,4.8,0.,4.8,0.,4.8,0.,4.8
1986-01-24 00:22:01.430 ,6,0,0.,4.8,2.,4.8,0.,4.8,0.,4.8
1986-01-24 00:22:06.230 ,6,0,0.,4.8,0.,4.8,0.,4.8,0.,4.8
1986-01-24 00:22:11.030 ,6,0,0.,4.8,1.,4.8,0.,4.8,0.,4.8
1986-01-24 00:22:15.830 ,6,0,0.,4.8,0.,4.8,2.,4.8,0.,4.8
1986-01-24 00:22:20.630 ,6,0,0.,4.8,2.,4.8,0.,4.8,0.,4.8
1986-01-24 00:22:25.430 ,7,0,0.,4.8,1.,4.8,0.,4.8,0.,4.8
1986-01-24 00:22:30.230 ,7,0,0.,4.8,1.,4.8,0.,4.8,0.,4.8
1986-01-24 00:22:35.030 ,7,0,0.,4.8,1.,4.8,0.,4.8,0.,4.8
1986-01-24 00:22:39.830 ,7,0,0.,4.8,0.,4.8,0.,4.8,0.,4.8
1986-01-24 00:22:44.630 ,7,0,0.,4.8,0.,4.8,0.,4.8,0.,4.8
1986-01-24 00:22:49.430 ,7,0,0.,4.8,1.,4.8,0.,4.8,0.,4.8
1986-01-24 00:22:54.230 ,7,0,0.,4.8,2.,4.8,0.,4.8,0.,4.8
1986-01-24 00:22:59.030 ,7,0,0.,4.8,0.,4.8,0.,4.8,0.,4.8
1986-01-24 00:23:03.830 ,7,0,0.,4.8,0.,4.8,0.,4.8,0.,4.8
1986-01-24 00:23:08.630 ,7,0,0.,4.8,1.,4.8,0.,4.8,0.,4.8
1986-01-24 00:23:13.430 ,7,0,0.,4.8,1.,4.8,0.,4.8,0.,4.8
1986-01-24 00:23:18.230 ,7,0,0.,4.8,0.,4.8,1.,4.8,0.,4.8
1986-01-24 00:23:23.030 ,7,0,0.,4.8,0.,4.8,0.,4.8,0.,4.8
1986-01-24 00:23:27.830 ,7,0,0.,4.8,0.,4.8,0.,4.8,0.,4.8
1986-01-24 00:23:32.630 ,7,0,0.,4.8,0.,4.8,0.,4.8,1.,4.8
1986-01-24 00:23:37.430 ,7,0,0.,4.8,1.,4.8,0.,4.8,0.,4.8
1986-01-24 00:23:42.230 ,7,0,0.,4.8,1.,4.8,0.,4.8,0.,4.8
1986-01-24 00:23:47.030 ,7,0,0.,4.8,1.,4.8,0.,4.8,0.,4.8
1986-01-24 00:23:51.830 ,7,0,0.,4.8,0.,4.8,0.,4.8,0.,4.8
1986-01-24 00:23:56.630 ,7,0,0.,4.8,4.,4.8,0.,4.8,0.,4.8
1986-01-24 00:24:01.430 ,6,0,0.,4.8,3.,4.8,0.,4.8,0.,4.8
1986-01-24 00:24:06.230 ,6,0,0.,4.8,3.,4.8,0.,4.8,0.,4.8
1986-01-24 00:24:11.030 ,6,0,0.,4.8,1.,4.8,0.,4.8,0.,4.8
1986-01-24 00:24:15.830 ,6,0,0.,4.8,0.,4.8,0.,4.8,0.,4.8
1986-01-24 00:24:20.630 ,6,0,0.,4.8,0.,4.8,0.,4.8,0.,4.8
1986-01-24 00:24:25.430 ,6,0,0.,4.8,0.,4.8,0.,4.8,0.,4.8
1986-01-24 00:24:30.230 ,6,0,0.,4.8,1.,4.8,0.,4.8,0.,4.8
1986-01-24 00:24:35.030 ,6,0,0.,4.8,2.,4.8,0.,4.8,0.,4.8
1986-01-24 00:24:39.830 ,6,0,0.,4.8,0.,4.8,0.,4.8,0.,4.8
1986-01-24 00:24:44.630 ,6,0,0.,4.8,2.,4.8,0.,4.8,0.,4.8
1986-01-24 00:24:49.430 ,5,0,0.,4.8,1.,4.8,0.,4.8,0.,4.8
1986-01-24 00:24:54.230 ,5,0,0.,4.8,3.,4.8,0.,4.8,0.,4.8
1986-01-24 00:24:59.030 ,5,0,0.,4.8,0.,4.8,0.,4.8,0.,4.8
1986-01-24 00:25:03.830 ,5,0,0.,4.8,1.,4.8,0.,4.8,0.,4.8
1986-01-24 00:25:08.630 ,5,0,0.,4.8,2.,4.8,0.,4.8,0.,4.8
1986-01-24 00:25:13.430 ,5,0,0.,4.8,0.,4.8,0.,4.8,0.,4.8
1986-01-24 00:25:18.230 ,5,0,0.,4.8,1.,4.8,0.,4.8,1.,4.8
1986-01-24 00:25:23.030 ,5,0,0.,4.8,1.,4.8,0.,4.8,0.,4.8
1986-01-24 00:25:27.830 ,5,0,0.,4.8,0.,4.8,0.,4.8,0.,4.8
1986-01-24 00:25:32.630 ,5,0,0.,4.8,1.,4.8,0.,4.8,0.,4.8
1986-01-24 00:25:37.430 ,4,0,0.,4.8,0.,4.8,0.,4.8,0.,4.8
1986-01-24 00:25:42.230 ,4,0,0.,4.8,0.,4.8,0.,4.8,0.,4.8
1986-01-24 00:25:47.030 ,4,0,0.,4.8,0.,4.8,0.,4.8,0.,4.8
1986-01-24 00:25:51.830 ,4,0,0.,4.8,1.,4.8,0.,4.8,0.,4.8
1986-01-24 00:25:56.630 ,4,0,0.,4.8,0.,4.8,0.,4.8,0.,4.8
1986-01-24 00:26:01.430 ,4,0,0.,4.8,1.,4.8,0.,4.8,0.,4.8
1986-01-24 00:26:06.230 ,4,0,0.,4.8,0.,4.8,0.,4.8,0.,4.8
1986-01-24 00:26:11.030 ,4,0,0.,4.8,0.,4.8,0.,4.8,0.,4.8
1986-01-24 00:26:15.830 ,4,0,0.,4.8,1.,4.8,0.,4.8,0.,4.8
1986-01-24 00:26:20.630 ,4,0,0.,4.8,0.,4.8,0.,4.8,0.,4.8
1986-01-24 00:26:25.430 ,3,0,0.,4.8,0.,4.8,0.,4.8,0.,4.8
1986-01-24 00:26:30.230 ,3,0,0.,4.8,0.,4.8,0.,4.8,0.,4.8
1986-01-24 00:26:35.030 ,3,0,0.,4.8,1.,4.8,0.,4.8,1.,4.8
1986-01-24 00:26:39.830 ,3,0,0.,4.8,1.,4.8,1.,4.8,0.,4.8
1986-01-24 00:26:44.630 ,3,0,0.,4.8,2.,4.8,0.,4.8,1.,4.8
1986-01-24 00:26:49.430 ,3,0,0.,4.8,0.,4.8,1.,4.8,0.,4.8
1986-01-24 00:26:54.230 ,3,0,0.,4.8,0.,4.8,0.,4.8,0.,4.8
1986-01-24 00:26:59.030 ,3,0,0.,4.8,0.,4.8,0.,4.8,0.,4.8
1986-01-24 00:27:03.830 ,3,0,0.,4.8,0.,4.8,0.,4.8,0.,4.8
1986-01-24 00:27:08.630 ,3,0,0.,4.8,2.,4.8,0.,4.8,0.,4.8
1986-01-24 00:27:13.430 ,2,0,0.,4.8,1.,4.8,0.,4.8,0.,4.8
1986-01-24 00:27:18.230 ,2,0,0.,4.8,1.,4.8,0.,4.8,0.,4.8
1986-01-24 00:27:23.030 ,2,0,0.,4.8,1.,4.8,0.,4.8,0.,4.8
1986-01-24 00:27:27.830 ,2,0,0.,4.8,1.,4.8,0.,4.8,0.,4.8
1986-01-24 00:27:32.630 ,2,0,0.,4.8,0.,4.8,0.,4.8,0.,4.8
1986-01-24 00:27:37.430 ,2,0,0.,4.8,1.,4.8,1.,4.8,0.,4.8
1986-01-24 00:27:42.230 ,2,0,0.,4.8,0.,4.8,0.,4.8,0.,4.8
1986-01-24 00:27:47.030 ,2,0,0.,4.8,0.,4.8,0.,4.8,0.,4.8
1986-01-24 00:27:51.830 ,2,0,0.,4.8,1.,4.8,0.,4.8,0.,4.8
1986-01-24 00:27:56.630 ,2,0,0.,4.8,0.,4.8,0.,4.8,0.,4.8
1986-01-24 00:28:01.430 ,1,0,0.,4.8,0.,4.8,0.,4.8,0.,4.8
1986-01-24 00:28:06.230 ,1,0,0.,4.8,0.,4.8,0.,4.8,0.,4.8
1986-01-24 00:28:11.030 ,1,0,0.,4.8,0.,4.8,0.,4.8,0.,4.8
1986-01-24 00:28:15.830 ,1,0,0.,4.8,1.,4.8,0.,4.8,0.,4.8
1986-01-24 00:28:20.630 ,1,0,0.,4.8,1.,4.8,1.,4.8,0.,4.8
1986-01-24 00:28:25.430 ,1,0,0.,4.8,0.,4.8,0.,4.8,0.,4.8
1986-01-24 00:28:30.230 ,1,0,0.,4.8,2.,4.8,0.,4.8,0.,4.8
1986-01-24 00:28:35.030 ,1,0,0.,4.8,1.,4.8,0.,4.8,0.,4.8
1986-01-24 00:28:39.830 ,1,0,0.,4.8,0.,4.8,0.,4.8,0.,4.8
1986-01-24 00:28:44.630 ,1,0,0.,4.8,1.,4.8,0.,4.8,0.,4.8
1986-01-24 00:28:49.430 ,0,0,0.,4.8,2.,4.8,0.,4.8,0.,4.8
1986-01-24 00:28:54.230 ,0,0,0.,4.8,0.,4.8,1.,4.8,0.,4.8
1986-01-24 00:28:59.030 ,0,0,0.,4.8,2.,4.8,0.,4.8,0.,4.8
1986-01-24 00:29:03.830 ,0,0,0.,4.8,0.,4.8,0.,4.8,0.,4.8
1986-01-24 00:29:08.630 ,0,0,0.,4.8,0.,4.8,0.,4.8,0.,4.8
1986-01-24 00:29:13.430 ,0,0,0.,4.8,1.,4.8,0.,4.8,1.,4.8
1986-01-24 00:29:18.230 ,0,0,0.,4.8,1.,4.8,0.,4.8,0.,4.8
1986-01-24 00:29:23.030 ,0,0,0.,4.8,1.,4.8,1.,4.8,0.,4.8
1986-01-24 00:29:27.830 ,0,0,0.,4.8,1.,4.8,1.,4.8,0.,4.8
1986-01-24 00:29:32.630 ,0,0,0.,4.8,1.,4.8,0.,4.8,0.,4.8
1986-01-24 00:29:37.430 ,0,0,0.,4.8,1.,4.8,0.,4.8,0.,4.8
1986-01-24 00:29:42.230 ,0,0,0.,4.8,1.,4.8,0.,4.8,0.,4.8
1986-01-24 00:29:47.030 ,0,0,0.,4.8,0.,4.8,0.,4.8,0.,4.8
1986-01-24 00:29:51.830 ,0,0,0.,4.8,0.,4.8,0.,4.8,0.,4.8
1986-01-24 00:29:56.630 ,0,0,0.,4.8,0.,4.8,0.,4.8,0.,4.8
1986-01-24 00:30:01.430 ,0,0,0.,4.8,2.,4.8,0.,4.8,0.,4.8
1986-01-24 00:30:06.230 ,0,0,0.,4.8,0.,4.8,0.,4.8,0.,4.8
1986-01-24 00:30:11.030 ,0,0,0.,4.8,1.,4.8,0.,4.8,0.,4.8
1986-01-24 00:30:15.830 ,0,0,0.,4.8,0.,4.8,0.,4.8,0.,4.8
1986-01-24 00:30:20.630 ,0,0,0.,4.8,0.,4.8,0.,4.8,0.,4.8
1986-01-24 00:30:25.430 ,1,0,0.,4.8,1.,4.8,0.,4.8,0.,4.8
1986-01-24 00:30:30.230 ,1,0,0.,4.8,2.,4.8,0.,4.8,0.,4.8
1986-01-24 00:30:35.030 ,1,0,0.,4.8,1.,4.8,1.,4.8,0.,4.8
1986-01-24 00:30:39.830 ,1,0,0.,4.8,0.,4.8,0.,4.8,0.,4.8
1986-01-24 00:30:44.630 ,1,0,0.,4.8,2.,4.8,0.,4.8,0.,4.8
1986-01-24 00:30:49.430 ,1,0,0.,4.8,1.,4.8,0.,4.8,0.,4.8
1986-01-24 00:30:54.230 ,1,0,0.,4.8,1.,4.8,0.,4.8,0.,4.8
1986-01-24 00:30:59.030 ,1,0,0.,4.8,0.,4.8,0.,4.8,1.,4.8
1986-01-24 00:31:03.830 ,1,0,0.,4.8,2.,4.8,0.,4.8,0.,4.8
1986-01-24 00:31:08.630 ,1,0,0.,4.8,0.,4.8,0.,4.8,0.,4.8
1986-01-24 00:31:13.430 ,2,0,0.,4.8,1.,4.8,1.,4.8,0.,4.8
1986-01-24 00:31:18.230 ,2,0,0.,4.8,1.,4.8,1.,4.8,0.,4.8
1986-01-24 00:31:23.030 ,2,0,0.,4.8,0.,4.8,0.,4.8,0.,4.8
1986-01-24 00:31:27.830 ,2,0,0.,4.8,1.,4.8,0.,4.8,0.,4.8
1986-01-24 00:31:32.630 ,2,0,0.,4.8,0.,4.8,0.,4.8,0.,4.8
1986-01-24 00:31:37.430 ,2,0,0.,4.8,1.,4.8,0.,4.8,0.,4.8
1986-01-24 00:31:42.230 ,2,0,0.,4.8,0.,4.8,0.,4.8,0.,4.8
1986-01-24 00:31:47.030 ,2,0,0.,4.8,0.,4.8,0.,4.8,0.,4.8
1986-01-24 00:31:51.830 ,2,0,0.,4.8,1.,4.8,0.,4.8,0.,4.8
1986-01-24 00:31:56.630 ,2,0,0.,4.8,1.,4.8,0.,4.8,0.,4.8
1986-01-24 00:32:01.430 ,3,0,0.,4.8,0.,4.8,0.,4.8,0.,4.8
1986-01-24 00:32:06.230 ,3,0,0.,4.8,0.,4.8,0.,4.8,0.,4.8
1986-01-24 00:32:11.030 ,3,0,0.,4.8,0.,4.8,0.,4.8,0.,4.8
1986-01-24 00:32:15.830 ,3,0,0.,4.8,1.,4.8,0.,4.8,0.,4.8
1986-01-24 00:32:20.630 ,3,0,0.,4.8,0.,4.8,0.,4.8,0.,4.8
1986-01-24 00:32:25.430 ,3,0,0.,4.8,2.,4.8,0.,4.8,0.,4.8
1986-01-24 00:32:30.230 ,3,0,0.,4.8,1.,4.8,0.,4.8,0.,4.8
1986-01-24 00:32:35.030 ,3,0,0.,4.8,2.,4.8,0.,4.8,0.,4.8
1986-01-24 00:32:39.830 ,3,0,0.,4.8,0.,4.8,0.,4.8,0.,4.8
1986-01-24 00:32:44.630 ,3,0,0.,4.8,0.,4.8,0.,4.8,0.,4.8
1986-01-24 00:32:49.430 ,4,0,0.,4.8,0.,4.8,0.,4.8,0.,4.8
1986-01-24 00:32:54.230 ,4,0,0.,4.8,1.,4.8,0.,4.8,0.,4.8